Weather History for Kendall, FL

Change the Weather History Date:

Monday, February 18, 2013

  Actual Average Record
Temperature  
Mean Temperature 59 °F -  
Max Temperature 72 °F 80 °F 84 °F (2008)
Min Temperature 46 °F 59 °F 44 °F (1991)
Degree Days  
Heating Degree Days 6    
Growing Degree Days 9 (Base 50)    
Moisture  
Dew Point 45 °F    
Average Humidity 59    
Maximum Humidity 75    
Minimum Humidity 40    
Precipitation  
Precipitation 0.00 in - - ()
Sea Level Pressure  
Sea Level Pressure 30.27 in    
Wind  
Wind Speed 11 mph (ENE)    
Max Wind Speed 20 mph    
Max Gust Speed 28 mph    
Visibility 10 miles    
Events      
Averages and records for this station are not official NWS values.
T = Trace of Precipitation, MM = Missing Value Source: NWS Daily Summary

Daily Weather History Graph

Daily Weather History Graph

Search for Another Location

Airport:

Trip Planner

Search our weather history database for the weather conditions in past years. The results will help you decide how hot, cold, wet, or windy it might be!

Date:

Astronomy

Feb. 18, 2013 Rise Set
Actual Time 6:54 AM EST 6:17 PM EST
Civil Twilight 6:30 AM EST 6:40 PM EST
Nautical Twilight 6:03 AM EST 7:07 PM EST
Astronomical Twilight 5:37 AM EST 7:34 PM EST
Moon 12:18 PM EST (2/18) 1:17 AM EST (2/18)
Length of Visible Light 12h 09m
Length of Day
11h 23m
First Quarter, 58% of the Moon is Illuminated
Feb 18
First Quarter
Feb 25
Full
Mar 4
Last Quarter
Mar 11
New
Mar 19
First Quarter

Hourly Weather History & Observations

Time (EST) Temp. Windchill Dew Point Humidity Pressure Visibility Wind Dir Wind Speed Gust Speed Precip Events Conditions
12:53 AM 46.9 °F - 37.0 °F 68% 30.30 in 10.0 mi North 8.1 mph - N/A   Clear
1:53 AM 46.9 °F - 37.9 °F 71% 30.30 in 10.0 mi North 9.2 mph - N/A   Clear
2:53 AM 48.0 °F - 37.0 °F 66% 30.28 in 10.0 mi North 9.2 mph - N/A   Clear
3:53 AM 48.0 °F - 37.0 °F 66% 30.27 in 10.0 mi North 11.5 mph - N/A   Clear
4:53 AM 48.0 °F - 37.0 °F 66% 30.28 in 10.0 mi North 12.7 mph - N/A   Clear
5:53 AM 48.0 °F - 37.0 °F 66% 30.28 in 10.0 mi North 12.7 mph - N/A   Clear
6:53 AM 46.4 °F 41.9 °F 35.6 °F 66% 30.29 in 10.0 mi North 9.2 mph - N/A   Clear
7:53 AM 50.0 °F - 36.0 °F 59% 30.30 in 10.0 mi North 9.2 mph - N/A   Clear
8:53 AM 55.9 °F - 39.9 °F 55% 30.31 in 10.0 mi North 5.8 mph - N/A   Clear
9:53 AM 62.1 °F - 44.1 °F 52% 30.32 in 10.0 mi NE 8.1 mph - N/A   Clear
10:53 AM 69.1 °F - 45.0 °F 42% 30.31 in 10.0 mi East 19.6 mph 24.2 mph N/A   Scattered Clouds
11:53 AM 71.1 °F - 46.0 °F 41% 30.31 in 10.0 mi ESE 16.1 mph 24.2 mph N/A   Partly Cloudy
12:53 PM 70.0 °F - 46.0 °F 42% 30.29 in 10.0 mi ESE 19.6 mph 25.3 mph N/A   Overcast
1:53 PM 72.0 °F - 46.0 °F 40% 30.26 in 10.0 mi East 13.8 mph 24.2 mph N/A   Mostly Cloudy
2:53 PM 71.1 °F - 51.1 °F 49% 30.23 in 10.0 mi East 18.4 mph 27.6 mph N/A   Mostly Cloudy
3:53 PM 70.0 °F - 48.9 °F 47% 30.23 in 10.0 mi East 16.1 mph 24.2 mph N/A   Mostly Cloudy
4:53 PM 68.0 °F - 50.0 °F 52% 30.24 in 10.0 mi ESE 15.0 mph 24.2 mph N/A   Scattered Clouds
5:53 PM 66.9 °F - 51.1 °F 57% 30.23 in 10.0 mi East 15.0 mph - N/A   Mostly Cloudy
6:53 PM 64.9 °F - 51.1 °F 61% 30.24 in 10.0 mi East 11.5 mph - N/A   Mostly Cloudy
7:53 PM 64.9 °F - 53.1 °F 65% 30.23 in 10.0 mi East 10.4 mph - N/A   Mostly Cloudy
8:53 PM 64.0 °F - 54.0 °F 70% 30.23 in 10.0 mi East 10.4 mph - N/A   Clear
9:53 PM 63.0 °F - 55.0 °F 75% 30.22 in 10.0 mi East 9.2 mph - N/A   Partly Cloudy
10:53 PM 66.9 °F - 57.0 °F 70% 30.22 in 10.0 mi ESE 10.4 mph - N/A   Overcast
11:53 PM 66.0 °F - 54.0 °F 65% 30.21 in 10.0 mi ESE 8.1 mph - N/A   Overcast